Hourly Data Report for September 28, 2017

All times are specified in Local Standard Time (LST). Add 1 hour to adjust for Daylight Saving Time where and when it is observed.

ALGONQUIN PARK EAST GATE
ONTARIO

45°32'00.000" N
78°16'00.000" W
397.00 m
6080192
71581
TNK

Download Data

Hourly Data (September 2017)
Hourly Data Report for September 28, 2017
Temp Definition
°C
Dew Point Temp Definition
°C
Rel Hum Definition
%
Wind Dir Definition
10's deg

Wind Spd Definition
km/h
Visibility Definition
km
Stn Press Definition
kPa
Hmdx Definition


Wind Chill Definition


Weather Definition


TIME
00:00 12.5 5.9 64 33 6   96.57     LegendNANA
01:00 11.5 3.3 57 35 6   96.67     LegendNANA
02:00 9.6 3.4 66 36 4   96.71     LegendNANA
03:00 8.5 3.6 71 31 4   96.76     LegendNANA
04:00 8.3 3.3 71 33 6   96.82     LegendNANA
05:00 8.3 3.1 70 35 4   96.85     LegendNANA
06:00 8.1 3.1 71 35 3   96.88     LegendNANA
07:00 8.1 3.5 73 36 2   96.94     LegendNANA
08:00 7.5 3.4 75 35 5   96.95     LegendNANA
09:00 7.7 4.0 77 31 4   97.01     LegendNANA
10:00 9.4 3.0 64 30 6   97.01     LegendNANA
11:00 10.1 2.2 58 34 5   97.01     LegendNANA
12:00 10.6 1.8 55 35 6   96.99     LegendNANA
13:00 12.0 1.1 47 30 5   96.93     LegendNANA
14:00 12.3 1.8 49 33 6   96.91     LegendNANA
15:00 12.2 1.7 49 30 6   96.91     LegendNANA
16:00 11.6 2.4 53 31 4   96.94     LegendNANA
17:00 10.1 3.6 64 29 4   96.99     LegendNANA
18:00 9.2 2.8 64 31 3   97.03     LegendNANA
19:00 8.7 2.7 66 31 2   97.06     LegendNANA
20:00 8.4 3.1 70 33 1   97.07     LegendNANA
21:00 6.0 2.9 80   0   97.07     LegendNANA
22:00 3.9 2.0 87   0   97.08     LegendNANA
23:00 2.6 1.1 90   0   97.08     LegendNANA

Notes on Data Quality.

Legend

  • E = Estimated
  • M = Missing
  • NA = Not Available
  • ‡ = Partner data that is not subject to review by the National Climate Archives
Date modified: